Time,TemperatureF,DewpointF,PressureIn,WindDirection,WindDirectionDegrees,WindSpeedMPH,WindSpeedGustMPH,Humidity,HourlyPrecipIn,Conditions,Clouds,dailyrainin,SoftwareType,DateUTC
2013-01-26 00:00:00,26.3,16.8,30.07,NW,321,14.0,14.0,67,0.00,,,0.00,Wunderground v.1.15,2013-01-26 06:00:00,
2013-01-26 00:09:00,26.4,16.6,30.07,North,360,13.0,13.0,66,0.00,,,0.00,Wunderground v.1.15,2013-01-26 06:09:00,
2013-01-26 00:14:00,26.4,16.6,30.08,North,5,14.0,14.0,66,0.00,,,0.00,Wunderground v.1.15,2013-01-26 06:14:00,
2013-01-26 00:19:00,26.3,17.2,30.08,NNW,342,15.0,19.0,68,0.00,,,0.00,Wunderground v.1.15,2013-01-26 06:19:00,
2013-01-26 00:24:00,26.1,16.6,30.08,NNW,346,15.0,19.0,67,0.00,,,0.00,Wunderground v.1.15,2013-01-26 06:24:00,
2013-01-26 00:29:00,26.3,17.2,30.09,North,360,13.0,15.0,68,0.00,,,0.00,Wunderground v.1.15,2013-01-26 06:29:00,
2013-01-26 00:34:00,26.1,17.0,30.09,NNE,19,12.0,15.0,68,0.00,,,0.00,Wunderground v.1.15,2013-01-26 06:34:00,
2013-01-26 00:39:00,26.1,16.6,30.09,North,5,14.0,14.0,67,0.00,,,0.00,Wunderground v.1.15,2013-01-26 06:39:00,
2013-01-26 00:44:00,26.0,16.5,30.09,NNE,16,14.0,14.0,67,0.00,,,0.00,Wunderground v.1.15,2013-01-26 06:44:00,
2013-01-26 00:50:00,25.8,16.7,30.09,NNW,347,14.0,14.0,68,0.00,,,0.00,Wunderground v.1.15,2013-01-26 06:50:00,
2013-01-26 00:55:00,26.0,15.8,30.09,NNW,333,14.0,15.0,65,0.00,,,0.00,Wunderground v.1.15,2013-01-26 06:55:00,
2013-01-26 01:00:00,25.8,16.3,30.10,North,360,14.0,16.0,67,0.00,,,0.00,Wunderground v.1.15,2013-01-26 07:00:00,
2013-01-26 01:04:00,25.7,16.6,30.10,North,360,13.0,16.0,68,0.00,,,0.00,Wunderground v.1.15,2013-01-26 07:04:00,
2013-01-26 01:09:00,25.7,16.6,30.10,NNW,340,12.0,15.0,68,0.00,,,0.00,Wunderground v.1.15,2013-01-26 07:09:00,
2013-01-26 01:14:00,25.7,16.6,30.10,NNE,15,13.0,15.0,68,0.00,,,0.00,Wunderground v.1.15,2013-01-26 07:14:00,
2013-01-26 01:19:00,25.8,16.3,30.10,NNW,344,14.0,16.0,67,0.00,,,0.00,Wunderground v.1.15,2013-01-26 07:19:00,
2013-01-26 01:24:00,26.0,16.2,30.10,NNW,342,15.0,16.0,66,0.00,,,0.00,Wunderground v.1.15,2013-01-26 07:24:00,
2013-01-26 01:29:00,25.7,16.6,30.11,NNW,346,15.0,17.0,68,0.00,,,0.00,Wunderground v.1.15,2013-01-26 07:29:00,
2013-01-26 01:35:00,25.7,16.3,30.11,NNE,12,14.0,17.0,67,0.00,,,0.00,Wunderground v.1.15,2013-01-26 07:35:00,
2013-01-26 01:40:00,25.8,15.6,30.11,North,360,14.0,15.0,65,0.00,,,0.00,Wunderground v.1.15,2013-01-26 07:40:00,
2013-01-26 01:45:00,25.8,15.6,30.11,NNW,345,13.0,16.0,65,0.00,,,0.00,Wunderground v.1.15,2013-01-26 07:45:00,
2013-01-26 01:50:00,25.8,15.6,30.11,NNW,346,13.0,14.0,65,0.00,,,0.00,Wunderground v.1.15,2013-01-26 07:50:00,
2013-01-26 01:55:00,25.8,15.3,30.11,North,355,13.0,16.0,64,0.00,,,0.00,Wunderground v.1.15,2013-01-26 07:55:00,
2013-01-26 02:00:00,25.8,15.6,30.12,NNW,345,12.0,16.0,65,0.00,,,0.00,Wunderground v.1.15,2013-01-26 08:00:00,
2013-01-26 02:04:00,25.7,15.6,30.12,NNE,29,12.0,16.0,65,0.00,,,0.00,Wunderground v.1.15,2013-01-26 08:04:00,
2013-01-26 02:14:00,25.7,15.9,30.12,North,360,11.0,14.0,66,0.00,,,0.00,Wunderground v.1.15,2013-01-26 08:14:00,
2013-01-26 02:19:00,25.7,15.6,30.12,NNW,342,12.0,12.0,65,0.00,,,0.00,Wunderground v.1.15,2013-01-26 08:19:00,
2013-01-26 02:24:00,25.7,15.9,30.12,NNW,348,12.0,15.0,66,0.00,,,0.00,Wunderground v.1.15,2013-01-26 08:24:00,
2013-01-26 02:29:00,25.7,15.6,30.12,North,360,14.0,18.0,65,0.00,,,0.00,Wunderground v.1.15,2013-01-26 08:29:00,
2013-01-26 02:34:00,25.6,16.2,30.12,NNW,343,14.0,18.0,67,0.00,,,0.00,Wunderground v.1.15,2013-01-26 08:34:00,
2013-01-26 02:40:00,25.6,16.2,30.12,NNE,13,13.0,13.0,67,0.00,,,0.00,Wunderground v.1.15,2013-01-26 08:40:00,
2013-01-26 02:45:00,25.6,16.5,30.13,North,360,12.0,13.0,68,0.00,,,0.00,Wunderground v.1.15,2013-01-26 08:45:00,
2013-01-26 02:50:00,25.6,15.5,30.13,NNW,332,12.0,15.0,65,0.00,,,0.00,Wunderground v.1.15,2013-01-26 08:50:00,
2013-01-26 02:55:00,25.7,15.6,30.13,NNW,347,13.0,15.0,65,0.00,,,0.00,Wunderground v.1.15,2013-01-26 08:55:00,
2013-01-26 03:00:00,25.7,15.9,30.13,NNW,348,12.0,12.0,66,0.00,,,0.00,Wunderground v.1.15,2013-01-26 09:00:00,
2013-01-26 03:04:00,25.7,15.2,30.13,North,360,13.0,13.0,64,0.00,,,0.00,Wunderground v.1.15,2013-01-26 09:04:00,
2013-01-26 03:09:00,25.7,15.2,30.13,North,5,12.0,18.0,64,0.00,,,0.00,Wunderground v.1.15,2013-01-26 09:09:00,
2013-01-26 03:14:00,25.7,14.8,30.14,NNW,338,12.0,18.0,63,0.00,,,0.00,Wunderground v.1.15,2013-01-26 09:14:00,
2013-01-26 03:19:00,25.6,15.1,30.14,NW,321,13.0,13.0,64,0.00,,,0.00,Wunderground v.1.15,2013-01-26 09:19:00,
2013-01-26 03:24:00,25.6,15.5,30.14,NNE,17,12.0,13.0,65,0.00,,,0.00,Wunderground v.1.15,2013-01-26 09:24:00,
2013-01-26 03:30:00,25.6,15.5,30.14,North,360,13.0,14.0,65,0.00,,,0.00,Wunderground v.1.15,2013-01-26 09:30:00,
2013-01-26 03:35:00,25.6,15.5,30.14,NNW,342,14.0,14.0,65,0.00,,,0.00,Wunderground v.1.15,2013-01-26 09:35:00,
2013-01-26 03:40:00,25.6,15.1,30.14,NW,323,12.0,12.0,64,0.00,,,0.00,Wunderground v.1.15,2013-01-26 09:40:00,
2013-01-26 03:45:00,25.4,14.9,30.15,NNE,27,13.0,15.0,64,0.00,,,0.00,Wunderground v.1.15,2013-01-26 09:45:00,
2013-01-26 03:50:00,25.3,14.5,30.15,NNW,345,14.0,14.0,63,0.00,,,0.00,Wunderground v.1.15,2013-01-26 09:50:00,
2013-01-26 03:55:00,25.3,14.8,30.15,NNE,18,13.0,14.0,64,0.00,,,0.00,Wunderground v.1.15,2013-01-26 09:55:00,
2013-01-26 04:00:00,25.3,15.2,30.16,North,355,12.0,13.0,65,0.00,,,0.00,Wunderground v.1.15,2013-01-26 10:00:00,
2013-01-26 04:04:00,25.3,14.8,30.16,North,9,14.0,14.0,64,0.00,,,0.00,Wunderground v.1.15,2013-01-26 10:04:00,
2013-01-26 04:09:00,25.1,14.6,30.16,North,360,14.0,14.0,64,0.00,,,0.00,Wunderground v.1.15,2013-01-26 10:09:00,
2013-01-26 04:14:00,25.0,14.5,30.16,North,360,12.0,14.0,64,0.00,,,0.00,Wunderground v.1.15,2013-01-26 10:14:00,
2013-01-26 04:19:00,25.0,14.5,30.16,NNW,342,11.0,15.0,64,0.00,,,0.00,Wunderground v.1.15,2013-01-26 10:19:00,
2013-01-26 04:25:00,25.0,14.2,30.16,North,10,12.0,15.0,63,0.00,,,0.00,Wunderground v.1.15,2013-01-26 10:25:00,
2013-01-26 04:30:00,25.1,15.0,30.17,NNE,20,11.0,11.0,65,0.00,,,0.00,Wunderground v.1.15,2013-01-26 10:30:00,
2013-01-26 04:35:00,25.1,14.3,30.17,North,5,11.0,16.0,63,0.00,,,0.00,Wunderground v.1.15,2013-01-26 10:35:00,
2013-01-26 04:40:00,25.0,14.2,30.17,NNW,348,12.0,14.0,63,0.00,,,0.00,Wunderground v.1.15,2013-01-26 10:40:00,
2013-01-26 04:49:00,24.8,13.6,30.17,North,11,13.0,17.0,62,0.00,,,0.00,Wunderground v.1.15,2013-01-26 10:49:00,
2013-01-26 04:54:00,24.8,13.6,30.17,NNW,346,14.0,17.0,62,0.00,,,0.00,Wunderground v.1.15,2013-01-26 10:54:00,
2013-01-26 04:59:00,24.8,14.0,30.17,NNE,13,12.0,12.0,63,0.00,,,0.00,Wunderground v.1.15,2013-01-26 10:59:00,
2013-01-26 05:05:00,24.7,13.9,30.17,NNE,28,12.0,19.0,63,0.00,,,0.00,Wunderground v.1.15,2013-01-26 11:05:00,
2013-01-26 05:10:00,24.7,14.2,30.17,North,355,13.0,17.0,64,0.00,,,0.00,Wunderground v.1.15,2013-01-26 11:10:00,
2013-01-26 05:14:00,24.7,13.9,30.18,NNE,16,14.0,17.0,63,0.00,,,0.00,Wunderground v.1.15,2013-01-26 11:14:00,
2013-01-26 05:20:00,24.5,13.7,30.18,NE,44,13.0,13.0,63,0.00,,,0.00,Wunderground v.1.15,2013-01-26 11:20:00,
2013-01-26 05:25:00,24.5,13.3,30.18,North,360,12.0,16.0,62,0.00,,,0.00,Wunderground v.1.15,2013-01-26 11:25:00,
2013-01-26 05:30:00,24.7,14.2,30.19,North,9,11.0,11.0,64,0.00,,,0.00,Wunderground v.1.15,2013-01-26 11:30:00,
2013-01-26 05:35:00,24.5,13.7,30.19,North,360,12.0,12.0,63,0.00,,,0.00,Wunderground v.1.15,2013-01-26 11:35:00,
2013-01-26 05:40:00,24.5,13.7,30.19,NE,36,12.0,12.0,63,0.00,,,0.00,Wunderground v.1.15,2013-01-26 11:40:00,
2013-01-26 05:45:00,24.5,13.7,30.20,North,360,11.0,12.0,63,0.00,,,0.00,Wunderground v.1.15,2013-01-26 11:45:00,
2013-01-26 05:50:00,24.4,13.6,30.20,NE,34,10.0,10.0,63,0.00,,,0.00,Wunderground v.1.15,2013-01-26 11:50:00,
2013-01-26 05:54:00,24.4,14.0,30.20,North,11,9.0,12.0,64,0.00,,,0.00,Wunderground v.1.15,2013-01-26 11:54:00,
2013-01-26 05:59:00,24.4,13.2,30.20,NNE,12,10.0,10.0,62,0.00,,,0.00,Wunderground v.1.15,2013-01-26 11:59:00,
2013-01-26 06:05:00,24.5,13.7,30.20,NE,45,11.0,11.0,63,0.00,,,0.00,Wunderground v.1.15,2013-01-26 12:05:00,
2013-01-26 06:10:00,24.4,13.6,30.20,NNE,19,10.0,10.0,63,0.00,,,0.00,Wunderground v.1.15,2013-01-26 12:10:00,
2013-01-26 06:15:00,24.4,13.2,30.21,NE,36,9.0,10.0,62,0.00,,,0.00,Wunderground v.1.15,2013-01-26 12:15:00,
2013-01-26 06:20:00,24.4,14.0,30.21,NNE,21,10.0,11.0,64,0.00,,,0.00,Wunderground v.1.15,2013-01-26 12:20:00,
2013-01-26 06:25:00,24.7,14.9,30.21,NNE,19,10.0,12.0,66,0.00,,,0.00,Wunderground v.1.15,2013-01-26 12:25:00,
2013-01-26 06:29:00,24.7,15.3,30.21,North,360,10.0,10.0,67,0.00,,,0.00,Wunderground v.1.15,2013-01-26 12:29:00,
2013-01-26 06:34:00,24.7,15.3,30.21,NNE,24,10.0,10.0,67,0.00,,,0.00,Wunderground v.1.15,2013-01-26 12:34:00,
2013-01-26 06:39:00,24.7,15.6,30.21,NNE,16,9.0,9.0,68,0.00,,,0.00,Wunderground v.1.15,2013-01-26 12:39:00,
2013-01-26 06:44:00,24.7,15.6,30.21,NE,34,9.0,9.0,68,0.00,,,0.00,Wunderground v.1.15,2013-01-26 12:44:00,
2013-01-26 06:49:00,24.8,15.7,30.21,NNE,32,9.0,11.0,68,0.00,,,0.00,Wunderground v.1.15,2013-01-26 12:49:00,
2013-01-26 06:54:00,24.8,15.7,30.21,NNE,33,9.0,11.0,68,0.00,,,0.00,Wunderground v.1.15,2013-01-26 12:54:00,
2013-01-26 06:59:00,25.0,15.6,30.22,North,5,11.0,11.0,67,0.00,,,0.00,Wunderground v.1.15,2013-01-26 12:59:00,
2013-01-26 07:05:00,25.0,15.2,30.22,NNE,32,9.0,11.0,66,0.00,,,0.00,Wunderground v.1.15,2013-01-26 13:05:00,
2013-01-26 07:10:00,25.0,15.6,30.22,North,355,7.0,10.0,67,0.00,,,0.00,Wunderground v.1.15,2013-01-26 13:10:00,
2013-01-26 07:15:00,25.0,15.6,30.23,North,360,7.0,10.0,67,0.00,,,0.00,Wunderground v.1.15,2013-01-26 13:15:00,
2013-01-26 07:20:00,25.0,15.9,30.23,NNW,348,8.0,8.0,68,0.00,,,0.00,Wunderground v.1.15,2013-01-26 13:20:00,
2013-01-26 07:25:00,25.1,16.0,30.23,NNE,15,7.0,8.0,68,0.00,,,0.00,Wunderground v.1.15,2013-01-26 13:25:00,
2013-01-26 07:30:00,25.1,15.3,30.23,NNE,32,5.0,6.0,66,0.00,,,0.00,Wunderground v.1.15,2013-01-26 13:30:00,
2013-01-26 07:35:00,25.3,15.5,30.23,NE,36,5.0,6.0,66,0.00,,,0.00,Wunderground v.1.15,2013-01-26 13:35:00,
2013-01-26 07:39:00,25.3,15.2,30.23,NE,42,6.0,6.0,65,0.00,,,0.00,Wunderground v.1.15,2013-01-26 13:39:00,
2013-01-26 07:44:00,25.3,15.5,30.23,NE,34,5.0,6.0,66,0.00,,,0.00,Wunderground v.1.15,2013-01-26 13:44:00,
2013-01-26 07:49:00,25.4,15.3,30.24,North,11,6.0,6.0,65,0.00,,,0.00,Wunderground v.1.15,2013-01-26 13:49:00,
2013-01-26 07:54:00,25.4,15.3,30.24,North,10,8.0,9.0,65,0.00,,,0.00,Wunderground v.1.15,2013-01-26 13:54:00,
2013-01-26 07:59:00,25.4,15.3,30.24,NNE,19,6.0,6.0,65,0.00,,,0.00,Wunderground v.1.15,2013-01-26 13:59:00,
2013-01-26 08:05:00,25.6,15.5,30.24,NNE,17,6.0,7.0,65,0.00,,,0.00,Wunderground v.1.15,2013-01-26 14:05:00,
2013-01-26 08:10:00,25.7,15.6,30.24,NE,36,7.0,9.0,65,0.00,,,0.00,Wunderground v.1.15,2013-01-26 14:10:00,
2013-01-26 08:15:00,25.7,15.6,30.25,NNE,24,7.0,9.0,65,0.00,,,0.00,Wunderground v.1.15,2013-01-26 14:15:00,
2013-01-26 08:20:00,25.7,15.6,30.25,North,9,6.0,9.0,65,0.00,,,0.00,Wunderground v.1.15,2013-01-26 14:20:00,
2013-01-26 08:25:00,25.7,15.9,30.25,NNE,19,7.0,9.0,66,0.00,,,0.00,Wunderground v.1.15,2013-01-26 14:25:00,
2013-01-26 08:30:00,25.7,15.9,30.26,North,9,7.0,8.0,66,0.00,,,0.00,Wunderground v.1.15,2013-01-26 14:30:00,
2013-01-26 08:35:00,25.7,15.9,30.26,North,5,7.0,8.0,66,0.00,,,0.00,Wunderground v.1.15,2013-01-26 14:35:00,
2013-01-26 08:40:00,25.8,16.3,30.26,North,5,7.0,7.0,67,0.00,,,0.00,Wunderground v.1.15,2013-01-26 14:40:00,
2013-01-26 08:44:00,25.8,16.3,30.26,North,355,6.0,7.0,67,0.00,,,0.00,Wunderground v.1.15,2013-01-26 14:44:00,
2013-01-26 08:49:00,25.8,16.3,30.26,NNE,30,6.0,11.0,67,0.00,,,0.00,Wunderground v.1.15,2013-01-26 14:49:00,
2013-01-26 08:54:00,26.0,16.5,30.26,North,5,8.0,11.0,67,0.00,,,0.00,Wunderground v.1.15,2013-01-26 14:54:00,
2013-01-26 08:59:00,25.8,16.3,30.26,North,360,6.0,6.0,67,0.00,,,0.00,Wunderground v.1.15,2013-01-26 14:59:00,
2013-01-26 09:04:00,26.0,16.5,30.27,North,360,6.0,6.0,67,0.00,,,0.00,Wunderground v.1.15,2013-01-26 15:04:00,
2013-01-26 09:10:00,26.0,16.2,30.27,NNE,15,5.0,7.0,66,0.00,,,0.00,Wunderground v.1.15,2013-01-26 15:10:00,
2013-01-26 09:15:00,26.1,16.3,30.28,NNE,24,5.0,7.0,66,0.00,,,0.00,Wunderground v.1.15,2013-01-26 15:15:00,
2013-01-26 09:20:00,26.0,16.9,30.28,NNE,17,5.0,5.0,68,0.00,,,0.00,Wunderground v.1.15,2013-01-26 15:20:00,
2013-01-26 09:25:00,26.0,16.9,30.28,NNE,17,4.0,5.0,68,0.00,,,0.00,Wunderground v.1.15,2013-01-26 15:25:00,
2013-01-26 09:30:00,26.0,16.9,30.29,NNE,17,3.0,3.0,68,0.00,,,0.00,Wunderground v.1.15,2013-01-26 15:30:00,
2013-01-26 09:35:00,26.1,17.0,30.29,NNE,18,3.0,6.0,68,0.00,,,0.00,Wunderground v.1.15,2013-01-26 15:35:00,
2013-01-26 09:40:00,26.1,17.0,30.29,North,5,5.0,8.0,68,0.00,,,0.00,Wunderground v.1.15,2013-01-26 15:40:00,
2013-01-26 09:44:00,26.1,17.0,30.29,North,9,7.0,8.0,68,0.00,,,0.00,Wunderground v.1.15,2013-01-26 15:44:00,
2013-01-26 09:49:00,26.1,16.6,30.30,North,10,8.0,8.0,67,0.00,,,0.00,Wunderground v.1.15,2013-01-26 15:49:00,
2013-01-26 09:54:00,26.1,16.3,30.30,North,10,8.0,10.0,66,0.00,,,0.00,Wunderground v.1.15,2013-01-26 15:54:00,
2013-01-26 09:59:00,26.3,16.5,30.30,North,355,8.0,10.0,66,0.00,,,0.00,Wunderground v.1.15,2013-01-26 15:59:00,
2013-01-26 10:04:00,26.3,16.5,30.31,North,355,8.0,10.0,66,0.00,,,0.00,Wunderground v.1.15,2013-01-26 16:04:00,
2013-01-26 10:09:00,26.3,16.5,30.31,North,10,7.0,7.0,66,0.00,,,0.00,Wunderground v.1.15,2013-01-26 16:09:00,
2013-01-26 10:15:00,26.4,16.2,30.31,NNW,339,6.0,7.0,65,0.00,,,0.00,Wunderground v.1.15,2013-01-26 16:15:00,
2013-01-26 10:20:00,26.4,16.2,30.31,North,11,6.0,9.0,65,0.00,,,0.00,Wunderground v.1.15,2013-01-26 16:20:00,
2013-01-26 10:25:00,26.4,15.9,30.31,North,9,6.0,9.0,64,0.00,,,0.00,Wunderground v.1.15,2013-01-26 16:25:00,
2013-01-26 10:30:00,26.6,15.7,30.31,North,360,7.0,7.0,63,0.00,,,0.00,Wunderground v.1.15,2013-01-26 16:30:00,
2013-01-26 10:35:00,26.7,15.8,30.31,NNW,338,7.0,7.0,63,0.00,,,0.00,Wunderground v.1.15,2013-01-26 16:35:00,
2013-01-26 10:40:00,26.9,15.6,30.31,NNW,327,7.0,11.0,62,0.00,,,0.00,Wunderground v.1.15,2013-01-26 16:40:00,
2013-01-26 10:45:00,26.9,15.6,30.32,North,5,7.0,11.0,62,0.00,,,0.00,Wunderground v.1.15,2013-01-26 16:45:00,
2013-01-26 10:49:00,27.0,15.7,30.32,North,360,7.0,10.0,62,0.00,,,0.00,Wunderground v.1.15,2013-01-26 16:49:00,
2013-01-26 10:54:00,27.0,15.3,30.32,NNE,19,6.0,10.0,61,0.00,,,0.00,Wunderground v.1.15,2013-01-26 16:54:00,
2013-01-26 10:59:00,26.9,14.9,30.32,North,11,8.0,11.0,60,0.00,,,0.00,Wunderground v.1.15,2013-01-26 16:59:00,
2013-01-26 11:04:00,27.0,15.3,30.32,North,360,7.0,11.0,61,0.00,,,0.00,Wunderground v.1.15,2013-01-26 17:04:00,
2013-01-26 11:10:00,26.9,15.2,30.32,North,350,7.0,10.0,61,0.00,,,0.00,Wunderground v.1.15,2013-01-26 17:10:00,
2013-01-26 11:15:00,26.9,14.9,30.32,North,360,7.0,10.0,60,0.00,,,0.00,Wunderground v.1.15,2013-01-26 17:15:00,
2013-01-26 11:20:00,27.0,14.9,30.32,NNE,13,7.0,12.0,60,0.00,,,0.00,Wunderground v.1.15,2013-01-26 17:20:00,
2013-01-26 11:25:00,26.9,15.6,30.32,North,350,8.0,12.0,62,0.00,,,0.00,Wunderground v.1.15,2013-01-26 17:25:00,
2013-01-26 11:30:00,26.7,15.8,30.32,North,351,8.0,8.0,63,0.00,,,0.00,Wunderground v.1.15,2013-01-26 17:30:00,
2013-01-26 11:35:00,26.7,16.1,30.32,North,360,7.0,8.0,64,0.00,,,0.00,Wunderground v.1.15,2013-01-26 17:35:00,
2013-01-26 11:40:00,26.7,16.1,30.32,NNE,16,5.0,5.0,64,0.00,,,0.00,Wunderground v.1.15,2013-01-26 17:40:00,
2013-01-26 11:45:00,26.6,16.1,30.32,North,360,5.0,9.0,64,0.00,,,0.00,Wunderground v.1.15,2013-01-26 17:45:00,
2013-01-26 11:50:00,26.6,16.4,30.32,NNW,344,5.0,5.0,65,0.00,,,0.00,Wunderground v.1.15,2013-01-26 17:50:00,
2013-01-26 11:55:00,26.9,16.7,30.32,NNW,347,4.0,5.0,65,0.00,,,0.00,Wunderground v.1.15,2013-01-26 17:55:00,
2013-01-26 12:00:00,27.0,16.8,30.32,North,360,4.0,4.0,65,0.00,,,0.00,Wunderground v.1.15,2013-01-26 18:00:00,
2013-01-26 12:04:00,27.0,16.8,30.32,North,360,4.0,4.0,65,0.00,,,0.00,Wunderground v.1.15,2013-01-26 18:04:00,
2013-01-26 12:09:00,26.9,16.3,30.32,NNE,14,4.0,4.0,64,0.00,,,0.00,Wunderground v.1.15,2013-01-26 18:09:00,
2013-01-26 12:14:00,26.7,16.1,30.32,North,11,5.0,10.0,64,0.00,,,0.00,Wunderground v.1.15,2013-01-26 18:14:00,
2013-01-26 12:19:00,26.7,16.5,30.32,NNE,13,5.0,5.0,65,0.00,,,0.00,Wunderground v.1.15,2013-01-26 18:19:00,
2013-01-26 12:24:00,26.6,16.4,30.32,North,11,5.0,5.0,65,0.00,,,0.00,Wunderground v.1.15,2013-01-26 18:24:00,
2013-01-26 12:30:00,26.7,17.2,30.31,NNE,14,4.0,5.0,67,0.00,,,0.00,Wunderground v.1.15,2013-01-26 18:30:00,
2013-01-26 12:35:00,26.6,17.8,30.31,North,11,4.0,7.0,69,0.00,,,0.00,Wunderground v.1.15,2013-01-26 18:35:00,
2013-01-26 12:40:00,26.4,17.9,30.31,North,355,6.0,8.0,70,0.00,,,0.00,Wunderground v.1.15,2013-01-26 18:40:00,
2013-01-26 12:49:00,26.3,18.5,30.31,North,360,5.0,5.0,72,0.00,,,0.00,Wunderground v.1.15,2013-01-26 18:49:00,
2013-01-26 12:55:00,26.1,18.6,30.31,North,5,5.0,5.0,73,0.00,,,0.00,Wunderground v.1.15,2013-01-26 18:55:00,
2013-01-26 13:00:00,26.1,19.3,30.31,North,5,5.0,5.0,75,0.00,,,0.00,Wunderground v.1.15,2013-01-26 19:00:00,
2013-01-26 13:04:00,26.3,19.8,30.31,North,5,3.0,5.0,76,0.00,,,0.00,Wunderground v.1.15,2013-01-26 19:04:00,
2013-01-26 13:09:00,26.3,19.8,30.31,North,5,2.0,4.0,76,0.00,,,0.00,Wunderground v.1.15,2013-01-26 19:09:00,
2013-01-26 13:15:00,26.1,19.3,30.31,North,5,3.0,4.0,75,0.00,,,0.00,Wunderground v.1.15,2013-01-26 19:15:00,
2013-01-26 13:20:00,26.1,18.9,30.31,North,9,4.0,5.0,74,0.00,,,0.00,Wunderground v.1.15,2013-01-26 19:20:00,
2013-01-26 13:24:00,26.3,18.8,30.31,North,9,4.0,5.0,73,0.00,,,0.00,Wunderground v.1.15,2013-01-26 19:24:00,
2013-01-26 13:29:00,26.4,18.9,30.31,North,10,4.0,4.0,73,0.00,,,0.00,Wunderground v.1.15,2013-01-26 19:29:00,
2013-01-26 13:34:00,26.4,18.6,30.32,North,11,4.0,5.0,72,0.00,,,0.00,Wunderground v.1.15,2013-01-26 19:34:00,
2013-01-26 13:39:00,26.4,18.6,30.32,NNE,13,4.0,6.0,72,0.00,,,0.00,Wunderground v.1.15,2013-01-26 19:39:00,
2013-01-26 13:44:00,26.4,18.6,30.32,NNE,17,6.0,6.0,72,0.00,,,0.00,Wunderground v.1.15,2013-01-26 19:44:00,
2013-01-26 13:49:00,26.6,18.8,30.32,NNE,20,5.0,5.0,72,0.00,,,0.00,Wunderground v.1.15,2013-01-26 19:49:00,
2013-01-26 13:54:00,26.7,18.9,30.32,NNE,24,4.0,5.0,72,0.00,,,0.00,Wunderground v.1.15,2013-01-26 19:54:00,
2013-01-26 14:00:00,26.7,18.6,30.32,NNE,22,4.0,5.0,71,0.00,,,0.00,Wunderground v.1.15,2013-01-26 20:00:00,
2013-01-26 14:04:00,26.7,18.6,30.32,NNE,20,5.0,7.0,71,0.00,,,0.00,Wunderground v.1.15,2013-01-26 20:04:00,
2013-01-26 14:09:00,26.9,18.4,30.32,NNE,23,4.0,4.0,70,0.00,,,0.00,Wunderground v.1.15,2013-01-26 20:09:00,
2013-01-26 14:14:00,26.7,17.9,30.32,North,355,5.0,5.0,69,0.00,,,0.00,Wunderground v.1.15,2013-01-26 20:14:00,
2013-01-26 14:19:00,26.9,18.1,30.32,North,355,4.0,4.0,69,0.00,,,0.00,Wunderground v.1.15,2013-01-26 20:19:00,
2013-01-26 14:24:00,26.9,17.7,30.32,North,5,4.0,4.0,68,0.00,,,0.00,Wunderground v.1.15,2013-01-26 20:24:00,
2013-01-26 14:29:00,27.0,17.8,30.33,North,5,4.0,4.0,68,0.00,,,0.00,Wunderground v.1.15,2013-01-26 20:29:00,
2013-01-26 14:35:00,27.0,17.5,30.33,North,5,3.0,5.0,67,0.00,,,0.00,Wunderground v.1.15,2013-01-26 20:35:00,
2013-01-26 14:40:00,27.0,17.5,30.33,North,5,3.0,3.0,67,0.00,,,0.00,Wunderground v.1.15,2013-01-26 20:40:00,
2013-01-26 14:44:00,27.0,17.5,30.33,North,10,3.0,3.0,67,0.00,,,0.00,Wunderground v.1.15,2013-01-26 20:44:00,
2013-01-26 14:50:00,27.0,17.1,30.33,North,9,3.0,4.0,66,0.00,,,0.00,Wunderground v.1.15,2013-01-26 20:50:00,
2013-01-26 14:55:00,27.0,16.4,30.33,North,9,4.0,4.0,64,0.00,,,0.00,Wunderground v.1.15,2013-01-26 20:55:00,
2013-01-26 15:00:00,26.9,16.3,30.34,North,5,5.0,5.0,64,0.00,,,0.00,Wunderground v.1.15,2013-01-26 21:00:00,
2013-01-26 15:04:00,26.9,16.3,30.34,North,5,5.0,5.0,64,0.00,,,0.00,Wunderground v.1.15,2013-01-26 21:04:00,
2013-01-26 15:09:00,27.0,17.1,30.34,North,360,4.0,4.0,66,0.00,,,0.00,Wunderground v.1.15,2013-01-26 21:09:00,
2013-01-26 15:14:00,27.0,17.8,30.34,NNW,347,5.0,6.0,68,0.00,,,0.00,Wunderground v.1.15,2013-01-26 21:14:00,
2013-01-26 15:19:00,26.9,17.7,30.34,NNW,331,7.0,7.0,68,0.00,,,0.00,Wunderground v.1.15,2013-01-26 21:19:00,
2013-01-26 15:24:00,26.9,17.7,30.34,NNW,333,6.0,7.0,68,0.00,,,0.00,Wunderground v.1.15,2013-01-26 21:24:00,
2013-01-26 15:29:00,26.9,17.7,30.34,NNW,340,5.0,7.0,68,0.00,,,0.00,Wunderground v.1.15,2013-01-26 21:29:00,
2013-01-26 15:34:00,26.9,17.7,30.34,NNW,333,5.0,7.0,68,0.00,,,0.00,Wunderground v.1.15,2013-01-26 21:34:00,
2013-01-26 15:40:00,26.9,17.4,30.34,NNW,336,5.0,5.0,67,0.00,,,0.00,Wunderground v.1.15,2013-01-26 21:40:00,
2013-01-26 15:45:00,26.9,17.7,30.34,NNW,337,5.0,5.0,68,0.00,,,0.00,Wunderground v.1.15,2013-01-26 21:45:00,
2013-01-26 15:50:00,26.9,17.7,30.34,NNW,332,5.0,5.0,68,0.00,,,0.00,Wunderground v.1.15,2013-01-26 21:50:00,
2013-01-26 15:55:00,26.9,18.1,30.34,NNW,331,6.0,6.0,69,0.00,,,0.00,Wunderground v.1.15,2013-01-26 21:55:00,
2013-01-26 16:00:00,26.9,18.1,30.36,NNW,340,5.0,6.0,69,0.00,,,0.00,Wunderground v.1.15,2013-01-26 22:00:00,
2013-01-26 16:04:00,26.9,17.7,30.36,NNW,338,6.0,7.0,68,0.00,,,0.00,Wunderground v.1.15,2013-01-26 22:04:00,
2013-01-26 16:09:00,26.7,17.6,30.36,NNW,331,7.0,9.0,68,0.00,,,0.00,Wunderground v.1.15,2013-01-26 22:09:00,
2013-01-26 16:14:00,26.7,17.6,30.36,NNW,348,6.0,9.0,68,0.00,,,0.00,Wunderground v.1.15,2013-01-26 22:14:00,
2013-01-26 16:19:00,26.7,17.6,30.36,North,5,5.0,5.0,68,0.00,,,0.00,Wunderground v.1.15,2013-01-26 22:19:00,
2013-01-26 16:25:00,26.6,17.5,30.36,NNW,328,5.0,5.0,68,0.00,,,0.00,Wunderground v.1.15,2013-01-26 22:25:00,
2013-01-26 16:30:00,26.6,17.5,30.36,NNW,343,4.0,5.0,68,0.00,,,0.00,Wunderground v.1.15,2013-01-26 22:30:00,
2013-01-26 16:35:00,26.6,17.5,30.36,NNW,344,4.0,5.0,68,0.00,,,0.00,Wunderground v.1.15,2013-01-26 22:35:00,
2013-01-26 16:40:00,26.6,17.5,30.36,NNW,344,3.0,4.0,68,0.00,,,0.00,Wunderground v.1.15,2013-01-26 22:40:00,
2013-01-26 16:45:00,26.6,17.5,30.36,NNW,346,3.0,4.0,68,0.00,,,0.00,Wunderground v.1.15,2013-01-26 22:45:00,
2013-01-26 16:50:00,26.6,17.5,30.36,NNW,346,3.0,3.0,68,0.00,,,0.00,Wunderground v.1.15,2013-01-26 22:50:00,
2013-01-26 16:55:00,26.6,17.5,30.36,NNW,346,1.0,3.0,68,0.00,,,0.00,Wunderground v.1.15,2013-01-26 22:55:00,
2013-01-26 17:00:00,26.4,17.3,30.36,NNW,346,1.0,1.0,68,0.00,,,0.00,Wunderground v.1.15,2013-01-26 23:00:00,
2013-01-26 17:09:00,26.4,17.3,30.36,NNW,346,1.0,2.0,68,0.00,,,0.00,Wunderground v.1.15,2013-01-26 23:09:00,
2013-01-26 17:14:00,26.4,17.3,30.36,NNW,346,1.0,2.0,68,0.00,,,0.00,Wunderground v.1.15,2013-01-26 23:14:00,
2013-01-26 17:19:00,26.4,17.3,30.36,NNW,346,1.0,1.0,68,0.00,,,0.00,Wunderground v.1.15,2013-01-26 23:19:00,
2013-01-26 17:24:00,26.4,17.3,30.36,NNW,346,1.0,2.0,68,0.00,,,0.00,Wunderground v.1.15,2013-01-26 23:24:00,
2013-01-26 17:30:00,26.4,17.3,30.36,NNW,346,1.0,2.0,68,0.00,,,0.00,Wunderground v.1.15,2013-01-26 23:30:00,
2013-01-26 17:35:00,26.4,17.3,30.36,NNW,346,1.0,2.0,68,0.00,,,0.00,Wunderground v.1.15,2013-01-26 23:35:00,
2013-01-26 17:40:00,26.4,17.3,30.36,NNW,346,1.0,1.0,68,0.00,,,0.00,Wunderground v.1.15,2013-01-26 23:40:00,
2013-01-26 17:45:00,26.4,17.3,30.37,NNW,346,1.0,1.0,68,0.00,,,0.00,Wunderground v.1.15,2013-01-26 23:45:00,
2013-01-26 17:55:00,26.4,16.9,30.37,NNW,346,0.0,1.0,67,0.00,,,0.00,Wunderground v.1.15,2013-01-26 23:55:00,
2013-01-26 18:00:00,26.3,17.2,30.37,NNW,346,0.0,0.0,68,0.00,,,0.00,Wunderground v.1.15,2013-01-27 00:00:00,
2013-01-26 18:09:00,26.3,16.8,30.37,NNW,346,1.0,1.0,67,0.00,,,0.00,Wunderground v.1.15,2013-01-27 00:09:00,
2013-01-26 18:14:00,26.4,16.9,30.37,NNW,346,1.0,1.0,67,0.00,,,0.00,Wunderground v.1.15,2013-01-27 00:14:00,
2013-01-26 18:19:00,26.3,16.8,30.37,NNW,346,0.0,0.0,67,0.00,,,0.00,Wunderground v.1.15,2013-01-27 00:19:00,
2013-01-26 18:24:00,26.3,16.8,30.37,NNW,346,0.0,0.0,67,0.00,,,0.00,Wunderground v.1.15,2013-01-27 00:24:00,
2013-01-26 18:29:00,26.3,16.8,30.38,NNW,346,0.0,0.0,67,0.00,,,0.00,Wunderground v.1.15,2013-01-27 00:29:00,
2013-01-26 18:34:00,26.3,16.8,30.38,NNW,346,1.0,1.0,67,0.00,,,0.00,Wunderground v.1.15,2013-01-27 00:34:00,
2013-01-26 18:39:00,26.4,16.6,30.38,NNW,346,1.0,1.0,66,0.00,,,0.00,Wunderground v.1.15,2013-01-27 00:39:00,
2013-01-26 18:45:00,26.4,16.6,30.37,NNW,346,1.0,2.0,66,0.00,,,0.00,Wunderground v.1.15,2013-01-27 00:45:00,
2013-01-26 18:50:00,26.4,16.9,30.37,NNW,344,1.0,2.0,67,0.00,,,0.00,Wunderground v.1.15,2013-01-27 00:50:00,
2013-01-26 18:55:00,26.3,16.5,30.37,NNW,344,1.0,2.0,66,0.00,,,0.00,Wunderground v.1.15,2013-01-27 00:55:00,
2013-01-26 19:00:00,26.3,16.5,30.36,NNW,344,0.0,0.0,66,0.00,,,0.00,Wunderground v.1.15,2013-01-27 01:00:00,
2013-01-26 19:09:00,26.1,16.6,30.36,NNW,344,1.0,1.0,67,0.00,,,0.00,Wunderground v.1.15,2013-01-27 01:09:00,
2013-01-26 19:14:00,26.1,16.6,30.36,NNW,344,1.0,1.0,67,0.00,,,0.00,Wunderground v.1.15,2013-01-27 01:14:00,
2013-01-26 19:19:00,26.1,17.0,30.36,NNW,344,0.0,0.0,68,0.00,,,0.00,Wunderground v.1.15,2013-01-27 01:19:00,
2013-01-26 19:24:00,26.0,16.9,30.36,NNW,344,0.0,0.0,68,0.00,,,0.00,Wunderground v.1.15,2013-01-27 01:24:00,
2013-01-26 19:29:00,26.0,16.9,30.37,NNW,344,0.0,1.0,68,0.00,,,0.00,Wunderground v.1.15,2013-01-27 01:29:00,
2013-01-26 19:34:00,26.0,16.9,30.37,NNW,344,0.0,1.0,68,0.00,,,0.00,Wunderground v.1.15,2013-01-27 01:34:00,
2013-01-26 19:39:00,26.0,17.2,30.37,NNW,344,0.0,0.0,69,0.00,,,0.00,Wunderground v.1.15,2013-01-27 01:39:00,
2013-01-26 19:45:00,26.0,16.9,30.36,NNW,344,0.0,1.0,68,0.00,,,0.00,Wunderground v.1.15,2013-01-27 01:45:00,
2013-01-26 19:50:00,26.0,16.9,30.36,NNW,344,1.0,1.0,68,0.00,,,0.00,Wunderground v.1.15,2013-01-27 01:50:00,
2013-01-26 19:55:00,26.0,16.9,30.36,NNW,344,0.0,1.0,68,0.00,,,0.00,Wunderground v.1.15,2013-01-27 01:55:00,
2013-01-26 20:00:00,26.0,16.9,30.37,NNW,344,0.0,0.0,68,0.00,,,0.00,Wunderground v.1.15,2013-01-27 02:00:00,
2013-01-26 20:09:00,25.8,17.0,30.37,NNW,344,0.0,0.0,69,0.00,,,0.00,Wunderground v.1.15,2013-01-27 02:09:00,
2013-01-26 20:14:00,25.7,16.9,30.38,NNW,344,0.0,0.0,69,0.00,,,0.00,Wunderground v.1.15,2013-01-27 02:14:00,
2013-01-26 20:19:00,25.6,17.2,30.38,NNW,344,0.0,2.0,70,0.00,,,0.00,Wunderground v.1.15,2013-01-27 02:19:00,
2013-01-26 20:24:00,25.6,17.2,30.38,NNW,344,1.0,2.0,70,0.00,,,0.00,Wunderground v.1.15,2013-01-27 02:24:00,
2013-01-26 20:29:00,25.3,16.9,30.37,NNW,344,1.0,2.0,70,0.00,,,0.00,Wunderground v.1.15,2013-01-27 02:29:00,
2013-01-26 20:34:00,25.1,16.7,30.37,NNW,344,1.0,2.0,70,0.00,,,0.00,Wunderground v.1.15,2013-01-27 02:34:00,
2013-01-26 20:39:00,25.1,16.7,30.37,NNW,344,2.0,2.0,70,0.00,,,0.00,Wunderground v.1.15,2013-01-27 02:39:00,
2013-01-26 20:44:00,25.0,16.9,30.37,NNW,344,1.0,2.0,71,0.00,,,0.00,Wunderground v.1.15,2013-01-27 02:44:00,
2013-01-26 20:49:00,24.8,16.7,30.37,NNW,344,1.0,1.0,71,0.00,,,0.00,Wunderground v.1.15,2013-01-27 02:49:00,
2013-01-26 20:55:00,24.8,16.7,30.37,NNW,344,1.0,2.0,71,0.00,,,0.00,Wunderground v.1.15,2013-01-27 02:55:00,
2013-01-26 21:00:00,24.7,16.6,30.37,NNW,344,2.0,2.0,71,0.00,,,0.00,Wunderground v.1.15,2013-01-27 03:00:00,
2013-01-26 21:09:00,24.5,16.4,30.37,NNW,344,1.0,1.0,71,0.00,,,0.00,Wunderground v.1.15,2013-01-27 03:09:00,
2013-01-26 21:14:00,24.5,16.4,30.37,NNW,344,1.0,1.0,71,0.00,,,0.00,Wunderground v.1.15,2013-01-27 03:14:00,
2013-01-26 21:19:00,24.4,16.3,30.38,NNW,344,1.0,1.0,71,0.00,,,0.00,Wunderground v.1.15,2013-01-27 03:19:00,
2013-01-26 21:24:00,24.2,16.5,30.38,NNW,344,1.0,1.0,72,0.00,,,0.00,Wunderground v.1.15,2013-01-27 03:24:00,
2013-01-26 21:29:00,24.1,16.4,30.38,NNW,342,1.0,1.0,72,0.00,,,0.00,Wunderground v.1.15,2013-01-27 03:29:00,
2013-01-26 21:34:00,24.1,16.4,30.38,NW,304,1.0,1.0,72,0.00,,,0.00,Wunderground v.1.15,2013-01-27 03:34:00,
2013-01-26 21:39:00,24.1,16.4,30.38,NW,304,1.0,1.0,72,0.00,,,0.00,Wunderground v.1.15,2013-01-27 03:39:00,
2013-01-26 21:45:00,23.9,16.5,30.39,NW,304,1.0,1.0,73,0.00,,,0.00,Wunderground v.1.15,2013-01-27 03:45:00,
2013-01-26 21:50:00,23.8,16.4,30.39,NW,304,2.0,2.0,73,0.00,,,0.00,Wunderground v.1.15,2013-01-27 03:50:00,
2013-01-26 21:55:00,23.8,16.4,30.39,NW,304,1.0,2.0,73,0.00,,,0.00,Wunderground v.1.15,2013-01-27 03:55:00,
2013-01-26 22:00:00,23.6,16.2,30.40,NW,304,1.0,1.0,73,0.00,,,0.00,Wunderground v.1.15,2013-01-27 04:00:00,
2013-01-26 22:04:00,23.6,16.5,30.40,NW,304,1.0,2.0,74,0.00,,,0.00,Wunderground v.1.15,2013-01-27 04:04:00,
2013-01-26 22:09:00,23.6,16.5,30.40,NW,304,1.0,1.0,74,0.00,,,0.00,Wunderground v.1.15,2013-01-27 04:09:00,
2013-01-26 22:14:00,23.5,16.4,30.40,NW,304,0.0,1.0,74,0.00,,,0.00,Wunderground v.1.15,2013-01-27 04:14:00,
2013-01-26 22:19:00,23.5,16.4,30.39,NW,304,1.0,1.0,74,0.00,,,0.00,Wunderground v.1.15,2013-01-27 04:19:00,
2013-01-26 22:24:00,23.5,16.4,30.39,NW,304,1.0,1.0,74,0.00,,,0.00,Wunderground v.1.15,2013-01-27 04:24:00,
2013-01-26 22:29:00,23.3,16.5,30.39,NW,304,0.0,0.0,75,0.00,,,0.00,Wunderground v.1.15,2013-01-27 04:29:00,
2013-01-26 22:34:00,23.2,16.4,30.40,NW,304,0.0,0.0,75,0.00,,,0.00,Wunderground v.1.15,2013-01-27 04:34:00,
2013-01-26 22:39:00,23.2,16.4,30.40,NW,304,0.0,0.0,75,0.00,,,0.00,Wunderground v.1.15,2013-01-27 04:39:00,
2013-01-26 22:44:00,23.0,16.3,30.40,NW,304,0.0,0.0,75,0.00,,,0.00,Wunderground v.1.15,2013-01-27 04:44:00,
2013-01-26 22:50:00,22.9,16.5,30.40,NW,304,0.0,1.0,76,0.00,,,0.00,Wunderground v.1.15,2013-01-27 04:50:00,
2013-01-26 22:55:00,22.7,16.3,30.40,NW,304,1.0,2.0,76,0.00,,,0.00,Wunderground v.1.15,2013-01-27 04:55:00,
2013-01-26 23:04:00,22.4,16.0,30.39,NW,304,1.0,2.0,76,0.00,,,0.00,Wunderground v.1.15,2013-01-27 05:04:00,
2013-01-26 23:09:00,22.4,16.0,30.39,NW,304,1.0,2.0,76,0.00,,,0.00,Wunderground v.1.15,2013-01-27 05:09:00,
2013-01-26 23:14:00,22.4,16.0,30.40,NW,304,1.0,2.0,76,0.00,,,0.00,Wunderground v.1.15,2013-01-27 05:14:00,
2013-01-26 23:19:00,22.4,16.0,30.40,WNW,303,1.0,1.0,76,0.00,,,0.00,Wunderground v.1.15,2013-01-27 05:19:00,
2013-01-26 23:24:00,22.2,15.8,30.40,WNW,303,1.0,2.0,76,0.00,,,0.00,Wunderground v.1.15,2013-01-27 05:24:00,
2013-01-26 23:29:00,22.2,16.1,30.39,WNW,303,2.0,2.0,77,0.00,,,0.00,Wunderground v.1.15,2013-01-27 05:29:00,
2013-01-26 23:34:00,22.2,16.1,30.39,WNW,302,2.0,2.0,77,0.00,,,0.00,Wunderground v.1.15,2013-01-27 05:34:00,
2013-01-26 23:39:00,22.2,16.1,30.39,WNW,294,2.0,2.0,77,0.00,,,0.00,Wunderground v.1.15,2013-01-27 05:39:00,
2013-01-26 23:45:00,22.2,16.1,30.37,SW,219,2.0,4.0,77,0.00,,,0.00,Wunderground v.1.15,2013-01-27 05:45:00,
2013-01-26 23:50:00,22.2,16.1,30.37,SW,219,2.0,2.0,77,0.00,,,0.00,Wunderground v.1.15,2013-01-27 05:50:00,
2013-01-26 23:55:00,22.2,16.1,30.37,SW,219,1.0,2.0,77,0.00,,,0.00,Wunderground v.1.15,2013-01-27 05:55:00,